Voltar ao catálogo

OPS 4682 DEB

AtivoPO
NORAD 38401·DEBRIS·🇺🇸 United States

Lançado Apr 3, 1965 de Vandenberg Space Force Base

Loading…

Próximas Passagens (próximas 24 horas)

TLE

AtualizadoSource: Space-Track

Época: Sep 14, 2026, 07:08 UTC

1 38401U 65027DE  26257.29760063  .00000327  00000-0  11326-2 0  9998
2 38401  90.2504  10.5796 0030172 315.1033  44.7646 12.95344371673911

Acompanhe OPS 4682 DEB em tempo real com AllMySat

Download on the App Store